When you browse on this site, cookies collect data to enhance your experience and personalize the content and advertising you see.
Visit our Privacy Policy to learn more. By continuing to use the site, you agree to this use of cookies and data.
  • In Portugal
  • List of Countries
  • For 7 days
  • Water Temperature
  • Satellite Maps
  • Weather Map
  • Weather Widgets
  • user-avatar
    Login

    Hourly Weather Kalemie

    Today, 22 March, Friday

    Time Temperature Precipitation Wind Pressure Humidity
    00:00 +27°C° 0 mm 0 mps 703 mmHg 33%
    01:00 +27°C° 0 mm 0 mps 703 mmHg 34%
    02:00 +26°C° 0 mm 0 mps 702 mmHg 36%
    03:00 +26°C° 0 mm 0 mps 703 mmHg 36%
    04:00 +26°C° 0 mm 0 mps 703 mmHg 36%
    05:00 +25°C° 0 mm 0 mps 703 mmHg 37%
    06:00 +27°C° 0 mm 0 mps 704 mmHg 32%
    07:00 +30°C° 0 mm 0 mps 704 mmHg 27%
    08:00 +34°C° 0 mm 1 mps 705 mmHg 19%
    09:00 +38°C° 0 mm 2 mps 706 mmHg 16%
    10:00 +40°C° 0 mm 3 mps 706 mmHg 13%
    11:00 +44°C° 0 mm 4 mps 706 mmHg 10%
    12:00 +43°C° 0 mm 4 mps 705 mmHg 12%
    13:00 +43°C° 0 mm 4 mps 704 mmHg 14%
    14:00 +41°C° 0 mm 4 mps 704 mmHg 19%
    15:00 +41°C° 0 mm 4 mps 704 mmHg 20%
    16:00 +40°C° 0 mm 3 mps 704 mmHg 22%
    17:00 +39°C° 0 mm 3 mps 703 mmHg 23%
    18:00 +37°C° 0 mm 2 mps 703 mmHg 26%
    19:00 +35°C° 0 mm 2 mps 703 mmHg 29%
    20:00 +32°C° 0 mm 1 mps 703 mmHg 33%
    21:00 +32°C° 0 mm 1 mps 703 mmHg 33%
    22:00 +31°C° 0 mm 1 mps 704 mmHg 34%
    23:00 +31°C° 0 mm 1 mps 704 mmHg 35%

    Tomorrow, 23 March, Saturday

    Time Temperature Precipitation Wind Pressure Humidity
    00:00 +30°C° 0 mm 1 mps 703 mmHg 36%
    01:00 +29°C° 0 mm 1 mps 703 mmHg 38%
    02:00 +29°C° 0 mm 1 mps 703 mmHg 39%
    03:00 +28°C° 0 mm 1 mps 702 mmHg 40%
    04:00 +28°C° 0 mm 1 mps 702 mmHg 42%
    05:00 +27°C° 0 mm 1 mps 702 mmHg 43%
    06:00 +29°C° 0 mm 1 mps 703 mmHg 40%
    07:00 +30°C° 0 mm 2 mps 703 mmHg 38%
    08:00 +31°C° 0 mm 2 mps 704 mmHg 35%
    09:00 +36°C° 0 mm 2 mps 704 mmHg 30%
    10:00 +40°C° 0 mm 2 mps 705 mmHg 24%
    11:00 +43°C° 0 mm 2 mps 705 mmHg 19%
    12:00 +43°C° 0 mm 2 mps 704 mmHg 19%
    13:00 +42°C° 0 mm 2 mps 703 mmHg 18%
    14:00 +41°C° 0 mm 2 mps 702 mmHg 18%
    15:00 +41°C° 0 mm 2 mps 702 mmHg 19%
    16:00 +40°C° 0 mm 1 mps 702 mmHg 20%
    17:00 +40°C° 0 mm 1 mps 702 mmHg 20%
    18:00 +39°C° 0 mm 1 mps 702 mmHg 22%
    19:00 +36°C° 0 mm 1 mps 703 mmHg 23%
    20:00 +35°C° 0 mm 1 mps 703 mmHg 25%
    21:00 +35°C° 0 mm 1 mps 703 mmHg 26%
    22:00 +34°C° 0 mm 1 mps 703 mmHg 27%
    23:00 +33°C° 0 mm 1 mps 703 mmHg 28%

    Day after tomorrow, 24 March, Sunday

    Time Temperature Precipitation Wind Pressure Humidity
    00:00 +32°C° 0 mm 1 mps 703 mmHg 30%
    01:00 +31°C° 0 mm 1 mps 702 mmHg 32%
    02:00 +30°C° 0 mm 1 mps 702 mmHg 33%
    03:00 +30°C° 0 mm 1 mps 701 mmHg 34%
    04:00 +30°C° 0 mm 1 mps 701 mmHg 35%
    05:00 +29°C° 0 mm 1 mps 701 mmHg 36%
    06:00 +30°C° 0 mm 2 mps 702 mmHg 35%
    07:00 +31°C° 0 mm 2 mps 703 mmHg 33%
    08:00 +33°C° 0 mm 3 mps 703 mmHg 32%
    09:00 +36°C° 0 mm 3 mps 704 mmHg 27%
    10:00 +38°C° 0 mm 3 mps 704 mmHg 23%
    11:00 +41°C° 0 mm 2 mps 704 mmHg 18%
    12:00 +42°C° 0 mm 2 mps 703 mmHg 17%
    13:00 +42°C° 0 mm 2 mps 702 mmHg 15%
    14:00 +43°C° 0 mm 2 mps 701 mmHg 14%
    15:00 +42°C° 0 mm 2 mps 701 mmHg 15%
    16:00 +41°C° 0 mm 1 mps 701 mmHg 16%
    17:00 +40°C° 0 mm 1 mps 701 mmHg 17%
    18:00 +39°C° 0 mm 1 mps 701 mmHg 18%
    19:00 +34°C° 0 mm 0 mps 701 mmHg 20%
    20:00 +33°C° 0 mm 0 mps 701 mmHg 21%
    21:00 +32°C° 0 mm 0 mps 702 mmHg 23%
    22:00 +30°C° 0 mm 0 mps 702 mmHg 25%
    23:00 +29°C° 0 mm 0 mps 702 mmHg 26%

    25 March, Monday

    Time Temperature Precipitation Wind Pressure Humidity
    00:00 +29°C° 0 mm 0 mps 702 mmHg 27%
    01:00 +31°C° 0 mm 1 mps 701 mmHg 27%
    02:00 +30°C° 0 mm 1 mps 701 mmHg 28%
    03:00 +30°C° 0 mm 2 mps 701 mmHg 32%
    04:00 +29°C° 0 mm 2 mps 701 mmHg 36%
    05:00 +29°C° 0 mm 3 mps 701 mmHg 41%
    06:00 +29°C° 0 mm 3 mps 702 mmHg 44%
    07:00 +29°C° 0 mm 3 mps 703 mmHg 48%
    08:00 +30°C° 0 mm 4 mps 704 mmHg 51%
    09:00 +34°C° 0 mm 4 mps 704 mmHg 43%
    10:00 +37°C° 0 mm 3 mps 705 mmHg 34%
    11:00 +40°C° 0 mm 3 mps 706 mmHg 25%
    12:00 +40°C° 0 mm 3 mps 704 mmHg 25%
    13:00 +40°C° 0 mm 2 mps 703 mmHg 25%
    14:00 +39°C° 0 mm 2 mps 702 mmHg 26%
    15:00 +38°C° 0.1 mm 2 mps 702 mmHg 31%
    16:00 +37°C° 0.1 mm 3 mps 702 mmHg 37%
    17:00 +35°C° 0.1 mm 4 mps 701 mmHg 42%
    18:00 +33°C° 0 mm 3 mps 702 mmHg 47%
    19:00 +31°C° 0 mm 2 mps 702 mmHg 52%
    20:00 +29°C° 0 mm 1 mps 703 mmHg 58%
    21:00 +28°C° 0 mm 1 mps 703 mmHg 60%
    22:00 +28°C° 0 mm 1 mps 703 mmHg 62%
    23:00 +27°C° 0 mm 2 mps 703 mmHg 64%

    26 March, Tuesday

    Time Temperature Precipitation Wind Pressure Humidity
    00:00 +27°C° 0.2 mm 1 mps 703 mmHg 66%
    01:00 +26°C° 0.2 mm 1 mps 703 mmHg 68%
    02:00 +26°C° 0.2 mm 1 mps 702 mmHg 70%
    03:00 +25°C° 0.8 mm 2 mps 703 mmHg 73%
    04:00 +25°C° 0.8 mm 2 mps 703 mmHg 76%
    05:00 +25°C° 0.8 mm 3 mps 703 mmHg 79%
    06:00 +26°C° 0 mm 3 mps 704 mmHg 76%
    07:00 +27°C° 0 mm 4 mps 705 mmHg 73%
    08:00 +28°C° 0 mm 4 mps 706 mmHg 70%
    09:00 +29°C° 0 mm 3 mps 706 mmHg 65%
    10:00 +30°C° 0 mm 3 mps 706 mmHg 60%
    11:00 +30°C° 0 mm 3 mps 707 mmHg 55%
    12:00 +33°C° 0 mm 3 mps 706 mmHg 50%
    13:00 +34°C° 0 mm 3 mps 705 mmHg 45%
    14:00 +36°C° 0 mm 3 mps 704 mmHg 41%
    15:00 +36°C° 0 mm 2 mps 704 mmHg 38%
    16:00 +37°C° 0 mm 2 mps 704 mmHg 35%
    17:00 +37°C° 0 mm 2 mps 704 mmHg 32%
    18:00 +35°C° 1.2 mm 2 mps 704 mmHg 42%
    19:00 +31°C° 1.2 mm 3 mps 705 mmHg 52%
    20:00 +29°C° 1.2 mm 3 mps 705 mmHg 62%
    21:00 +28°C° 1.1 mm 2 mps 706 mmHg 68%
    22:00 +27°C° 1.1 mm 1 mps 706 mmHg 74%
    23:00 +27°C° 1.1 mm 1 mps 706 mmHg 80%

    27 March, Wednesday

    Time Temperature Precipitation Wind Pressure Humidity
    00:00 +26°C° 0 mm 1 mps 705 mmHg 81%
    01:00 +26°C° 0 mm 2 mps 705 mmHg 82%
    02:00 +25°C° 0 mm 2 mps 704 mmHg 83%
    03:00 +25°C° 0 mm 2 mps 704 mmHg 83%
    04:00 +25°C° 0 mm 2 mps 705 mmHg 83%
    05:00 +25°C° 0 mm 2 mps 705 mmHg 83%
    06:00 +25°C° 0.2 mm 2 mps 705 mmHg 82%
    07:00 +25°C° 0.2 mm 2 mps 706 mmHg 82%
    08:00 +25°C° 0.2 mm 3 mps 707 mmHg 81%
    09:00 +28°C° 0 mm 2 mps 707 mmHg 70%
    10:00 +30°C° 0 mm 2 mps 708 mmHg 60%
    11:00 +34°C° 0 mm 2 mps 708 mmHg 49%
    12:00 +32°C° 0 mm 2 mps 707 mmHg 54%
    13:00 +30°C° 0 mm 2 mps 707 mmHg 58%
    14:00 +29°C° 0 mm 1 mps 706 mmHg 62%
    15:00 +30°C° 0 mm 1 mps 706 mmHg 59%
    16:00 +30°C° 0 mm 1 mps 706 mmHg 55%
    17:00 +31°C° 0 mm 1 mps 706 mmHg 52%
    18:00 +30°C° 0 mm 1 mps 706 mmHg 56%
    19:00 +26°C° 0 mm 0 mps 706 mmHg 61%
    20:00 +25°C° 0 mm 0 mps 706 mmHg 65%
    21:00 +25°C° 0 mm 0 mps 706 mmHg 65%
    22:00 +27°C° 0 mm 1 mps 706 mmHg 66%
    23:00 +26°C° 0 mm 1 mps 706 mmHg 67%
    Show more